�N����,����,�~����,�C��,���x,�C��,����,���ϕ���,�ő�u�ԕ���,�ő厞����,���˗�,�I�_���x,�n�����x,�ő啗���N��,DTYPE
"17/01/08","00:10",0.0,4.7,84.6,1012.8,320.2,4.0,5.6,308.4,0.00,2.4,6.8,"00:09:52",1
"17/01/08","00:20",0.0,4.8,84.4,1012.6,321.9,3.9,5.6,332.8,0.00,2.4,6.6,"00:12:00",1
"17/01/08","00:30",0.0,4.8,84.3,1012.8,312.2,4.5,6.7,321.9,0.00,2.4,6.7,"00:29:44",1
"17/01/08","00:40",0.0,4.7,84.7,1013.0,320.1,4.1,5.6,322.1,0.00,2.4,6.8,"00:30:08",1
"17/01/08","00:50",0.0,4.8,84.8,1012.3,323.2,3.6,6.3,326.2,0.00,2.5,6.4,"00:43:20",1
"17/01/08","01:00",0.0,4.7,84.9,1012.1,322.0,3.2,4.9,315.4,0.00,2.4,6.6,"00:55:04",1
"17/01/08","01:10",0.0,4.5,85.2,1011.9,310.7,3.4,4.5,312.5,0.00,2.3,6.6,"01:08:08",1
"17/01/08","01:20",0.0,4.4,85.7,1011.4,313.6,3.2,4.8,317.8,0.00,2.3,6.7,"01:19:12",1
"17/01/08","01:30",0.0,4.5,85.7,1011.4,321.5,3.1,4.7,329.1,0.00,2.4,6.5,"01:24:40",1
"17/01/08","01:40",0.0,4.6,85.6,1011.6,316.4,3.1,5.2,323.9,0.00,2.4,6.6,"01:36:24",1
"17/01/08","01:50",0.0,4.6,85.6,1011.4,323.3,3.2,4.5,317.4,0.00,2.4,6.8,"01:43:52",1
"17/01/08","02:00",0.0,4.6,85.7,1011.4,316.3,2.8,5.0,336.1,0.00,2.5,6.7,"01:56:48",1
"17/01/08","02:10",0.0,4.5,85.9,1011.4,321.6,3.2,5.2,322.0,0.00,2.4,6.5,"02:01:12",1
"17/01/08","02:20",0.0,4.5,85.8,1011.2,320.3,3.2,4.5,319.8,0.00,2.4,6.6,"02:11:52",1
"17/01/08","02:30",0.0,4.4,86.1,1011.2,322.5,2.6,4.7,333.8,0.00,2.3,6.5,"02:29:36",1
"17/01/08","02:40",0.0,4.4,86.5,1010.9,319.7,3.4,4.9,306.7,0.00,2.4,6.6,"02:34:32",1
"17/01/08","02:50",0.0,4.6,85.8,1010.9,317.7,4.1,6.0,314.3,0.00,2.5,6.7,"02:40:40",1
"17/01/08","03:00",0.0,4.6,85.6,1010.9,314.2,3.2,5.5,304.0,0.00,2.4,6.7,"02:59:12",1
"17/01/08","03:10",0.0,4.6,85.3,1010.7,319.8,3.0,5.2,323.7,0.00,2.4,6.6,"03:00:08",1
"17/01/08","03:20",0.0,4.4,85.8,1010.2,325.7,2.5,3.9,327.9,0.00,2.3,6.7,"03:13:28",1
"17/01/08","03:30",0.0,4.4,86.3,1010.2,318.5,2.6,4.2,306.5,0.00,2.4,6.6,"03:23:36",1
"17/01/08","03:40",0.0,4.5,86.4,1010.4,313.2,3.4,5.8,320.1,0.00,2.5,6.7,"03:34:48",1
"17/01/08","03:50",0.0,4.4,86.2,1010.4,320.5,2.5,4.0,329.4,0.00,2.3,6.7,"03:41:12",1
"17/01/08","04:00",0.0,4.4,86.6,1010.2,320.2,2.7,3.9,318.2,0.00,2.4,6.6,"03:55:44",1
"17/01/08","04:10",0.0,4.4,86.7,1010.0,324.1,2.5,3.6,321.2,0.00,2.4,6.5,"04:05:36",1
"17/01/08","04:20",0.0,4.4,86.7,1009.5,318.0,3.1,4.7,330.6,0.00,2.4,6.4,"04:15:52",1
"17/01/08","04:30",0.0,4.3,86.4,1009.7,315.0,2.7,4.0,350.7,0.00,2.3,6.5,"04:28:48",1
"17/01/08","04:40",0.0,4.3,86.5,1009.7,309.3,2.8,3.9,340.3,0.00,2.3,6.5,"04:31:52",1
"17/01/08","04:50",0.0,4.3,86.4,1009.5,308.6,3.0,4.4,318.7,0.00,2.3,6.6,"04:40:40",1
"17/01/08","05:00",0.0,4.3,86.5,1009.5,318.5,3.0,4.3,317.3,0.00,2.3,6.5,"04:52:16",1
"17/01/08","05:10",0.0,4.3,86.5,1009.7,319.5,3.4,5.1,311.9,0.00,2.3,6.6,"05:02:00",1
"17/01/08","05:20",0.0,4.3,86.4,1009.7,315.2,3.5,4.9,320.8,0.00,2.3,6.4,"05:16:40",1
"17/01/08","05:30",0.0,4.3,86.7,1009.5,317.4,3.5,5.2,302.4,0.00,2.3,6.5,"05:28:24",1
"17/01/08","05:40",0.0,4.3,86.8,1009.3,315.2,2.7,3.9,318.3,0.00,2.3,6.3,"05:30:08",1
"17/01/08","05:50",0.0,4.3,86.8,1009.3,302.6,3.0,4.2,316.7,0.00,2.3,6.4,"05:49:44",1
"17/01/08","06:00",0.0,4.3,86.7,1009.0,311.7,3.0,4.1,321.6,0.00,2.3,6.4,"05:50:16",1
"17/01/08","06:10",0.0,4.3,86.9,1009.3,317.9,2.3,3.2,316.2,0.00,2.4,6.2,"06:07:52",1
"17/01/08","06:20",0.0,4.3,87.2,1008.8,316.8,2.6,4.1,328.2,0.00,2.4,6.6,"06:13:20",1
"17/01/08","06:30",0.0,4.3,87.2,1009.0,311.2,2.7,3.9,326.6,0.00,2.4,6.4,"06:22:24",1
"17/01/08","06:40",0.0,4.4,86.7,1009.0,303.8,2.5,3.2,302.2,0.00,2.4,6.5,"06:30:48",1
"17/01/08","06:50",0.0,4.5,86.4,1009.3,313.0,2.6,3.6,322.0,0.00,2.5,6.5,"06:42:40",1
"17/01/08","07:00",0.0,4.5,86.4,1008.6,321.7,2.1,3.4,338.6,0.00,2.5,6.3,"06:50:24",1
"17/01/08","07:10",0.0,4.5,86.5,1008.3,321.1,2.6,3.7,327.5,0.00,2.5,6.3,"07:05:12",1
"17/01/08","07:20",0.0,4.4,86.9,1008.3,307.8,2.7,3.6,326.2,0.00,2.5,6.4,"07:10:32",1
"17/01/08","07:30",0.0,4.6,86.8,1008.3,283.3,2.6,4.0,293.4,0.00,2.6,6.4,"07:27:52",1
"17/01/08","07:40",0.0,4.7,86.3,1008.3,305.4,3.4,4.8,316.1,0.00,2.7,6.3,"07:38:40",1
"17/01/08","07:50",0.0,4.9,85.6,1008.3,315.0,3.2,4.2,315.7,0.00,2.7,6.3,"07:40:48",1
"17/01/08","08:00",0.0,4.9,85.4,1008.1,311.1,2.5,3.6,316.9,0.00,2.7,6.5,"07:50:16",1
"17/01/08","08:10",0.0,5.0,85.1,1008.3,318.1,2.6,4.3,335.1,0.00,2.7,6.5,"08:05:04",1
"17/01/08","08:20",0.0,5.2,84.9,1007.6,314.5,2.8,4.0,332.1,0.00,2.9,6.6,"08:15:12",1
"17/01/08","08:30",0.0,5.3,84.4,1008.1,315.2,2.8,4.0,328.8,0.00,2.9,6.3,"08:29:20",1
"17/01/08","08:40",0.0,5.5,83.9,1008.3,316.9,3.2,4.3,324.6,0.00,3.0,6.6,"08:37:52",1
"17/01/08","08:50",0.0,5.6,83.5,1007.8,319.4,2.5,3.9,324.7,0.00,3.1,6.6,"08:44:40",1
"17/01/08","09:00",0.0,5.6,82.6,1007.8,320.8,2.6,3.6,331.4,0.00,2.9,6.5,"08:54:56",1
"17/01/08","09:10",0.0,5.8,82.2,1008.1,301.2,2.3,3.1,278.1,0.00,3.0,6.6,"09:05:12",1
"17/01/08","09:20",0.0,5.7,82.1,1008.3,294.6,2.5,3.2,304.8,0.00,2.9,6.6,"09:10:40",1
"17/01/08","09:30",0.0,5.7,82.2,1008.3,295.0,2.5,3.7,311.7,0.00,2.9,6.7,"09:29:36",1
"17/01/08","09:40",0.0,5.7,82.7,1007.6,292.2,2.5,3.2,302.0,0.01,3.0,6.8,"09:35:28",1
"17/01/08","09:50",0.0,5.8,82.8,1007.6,293.3,2.6,3.9,320.2,0.01,3.1,6.6,"09:48:24",1
"17/01/08","10:00",0.0,5.9,82.4,1007.4,297.0,2.7,3.7,300.3,0.02,3.2,6.7,"09:52:48",1
"17/01/08","10:10",0.0,6.0,82.8,1007.1,293.0,2.3,3.5,310.4,0.03,3.3,6.7,"10:01:12",1
"17/01/08","10:20",0.0,6.2,83.6,1006.9,291.3,2.3,3.1,300.7,0.04,3.7,6.7,"10:19:36",1
"17/01/08","10:30",0.0,6.1,84.5,1006.7,285.7,2.5,3.2,295.1,0.05,3.7,6.8,"10:26:16",1
"17/01/08","10:40",0.0,6.2,85.6,1006.4,284.2,2.3,3.1,300.9,0.04,4.0,6.7,"10:34:04",1
"17/01/08","10:50",0.0,6.2,86.7,1006.0,296.5,2.5,3.6,310.6,0.04,4.2,6.9,"10:46:44",1
"17/01/08","11:00",0.2,6.3,87.6,1005.7,288.3,2.1,3.1,279.5,0.03,4.4,6.9,"10:58:00",1
"17/01/08","11:10",0.0,6.3,88.8,1006.0,284.5,2.2,2.6,295.6,0.03,4.6,7.2,"11:07:32",1
"17/01/08","11:20",0.0,6.2,89.8,1005.7,291.9,2.5,2.8,302.4,0.03,4.7,7.1,"11:11:12",1
"17/01/08","11:30",0.0,6.3,90.6,1005.5,288.7,1.7,1.8,292.4,0.03,4.9,7.0,"11:25:38",1
"17/01/08","11:40",0.2,6.4,91.3,1005.2,285.1,1.7,2.2,311.9,0.03,5.1,7.3,"11:36:54",1
"17/01/08","11:50",0.2,6.5,92.0,1005.2,286.0,1.7,3.1,315.7,0.04,5.3,7.2,"11:48:56",1
"17/01/08","12:00",0.0,6.4,92.6,1004.8,286.4,1.6,2.1,304.8,0.03,5.3,7.1,"11:59:54",1
"17/01/08","12:10",0.2,6.5,93.4,1004.3,295.1,1.7,2.7,318.3,0.03,5.6,7.2,"12:04:48",1
"17/01/08","12:20",0.2,6.5,93.8,1004.1,278.3,1.3,2.4,264.4,0.02,5.6,7.2,"12:17:52",1
"17/01/08","12:30",0.4,6.5,93.6,1004.1,275.8,1.8,2.6,265.2,0.02,5.6,7.3,"12:27:12",1
"17/01/08","12:40",0.4,6.4,93.2,1003.4,275.6,1.8,2.2,270.9,0.02,5.4,7.4,"12:30:16",1
"17/01/08","12:50",0.2,6.4,93.0,1003.1,290.9,2.0,3.4,316.6,0.02,5.4,7.2,"12:45:06",1
"17/01/08","13:00",0.4,6.3,92.9,1003.1,283.2,1.7,2.1,295.4,0.02,5.3,7.4,"12:55:36",1
"17/01/08","13:10",0.6,6.4,93.2,1003.1,286.7,1.8,2.5,299.9,0.03,5.4,7.2,"13:05:04",1
"17/01/08","13:20",0.4,6.5,93.4,1003.1,281.0,1.6,2.0,326.3,0.03,5.6,7.3,"13:12:56",1
"17/01/08","13:30",0.2,6.6,93.7,1002.9,277.2,1.6,2.1,270.3,0.03,5.7,7.3,"13:20:48",1
"17/01/08","13:40",0.4,6.7,94.2,1002.6,298.8,1.7,2.6,323.8,0.04,5.9,7.3,"13:36:32",1
"17/01/08","13:50",0.0,6.8,94.2,1002.6,286.3,1.6,2.4,306.4,0.03,6.0,7.5,"13:42:48",1
"17/01/08","14:00",0.2,6.9,94.4,1002.6,289.7,1.5,2.1,312.7,0.02,6.1,7.4,"13:54:56",1
"17/01/08","14:10",0.4,6.9,94.6,1002.6,287.5,1.5,2.0,312.8,0.02,6.1,7.5,"14:08:56",1
"17/01/08","14:20",0.4,7.0,94.9,1002.6,284.6,1.2,1.6,277.8,0.01,6.3,7.3,"14:14:56",1
"17/01/08","14:30",0.4,7.0,95.4,1002.2,280.9,1.1,1.2,273.7,0.02,6.4,7.6,"14:22:24",1
"17/01/08","14:40",0.4,7.1,95.4,1001.9,295.9,1.2,1.4,315.2,0.01,6.5,7.7,"14:39:28",1
"17/01/08","14:50",0.2,7.0,95.5,1002.2,295.6,1.2,1.6,309.7,0.01,6.4,7.6,"14:42:00",1
"17/01/08","15:00",0.2,7.1,95.7,1001.9,279.0,1.1,1.3,297.5,0.01,6.5,7.5,"14:52:48",1
"17/01/08","15:10",0.4,7.0,95.7,1001.9,273.7,1.2,1.7,265.8,0.01,6.4,7.8,"15:07:12",1
"17/01/08","15:20",0.2,6.9,95.7,1001.7,280.3,1.2,1.8,269.6,0.00,6.3,7.6,"15:13:20",1
"17/01/08","15:30",0.4,6.9,95.8,1001.2,287.0,1.2,1.6,290.2,0.00,6.3,7.7,"15:25:52",1
"17/01/08","15:40",0.2,6.7,95.8,1001.2,275.8,1.2,2.0,310.5,0.00,6.1,7.5,"15:39:52",1
"17/01/08","15:50",0.4,6.6,96.0,1001.5,277.1,1.5,1.8,271.3,0.00,6.0,7.6,"15:42:32",1
"17/01/08","16:00",0.6,6.5,96.2,1001.0,270.5,1.5,1.9,272.4,0.00,6.0,7.6,"15:52:32",1
"17/01/08","16:10",0.6,6.5,96.4,1001.0,271.3,0.8,1.4,288.6,0.00,6.0,7.6,"16:00:32",1
"17/01/08","16:20",1.0,6.5,96.6,1001.2,269.1,0.7,1.2,260.7,0.00,6.0,7.6,"16:12:08",1
"17/01/08","16:30",1.2,6.4,96.9,1000.8,252.1,0.6,1.1,250.3,0.00,6.0,7.6,"16:27:20",1
"17/01/08","16:40",0.8,6.3,97.1,1000.5,280.7,1.5,2.2,308.6,0.00,5.9,7.6,"16:38:24",1
"17/01/08","16:50",0.4,6.4,97.4,1000.5,304.8,2.2,2.8,323.0,0.00,6.1,7.5,"16:40:48",1
"17/01/08","17:00",0.2,6.3,97.5,1000.5,292.6,1.7,2.0,303.0,0.00,6.0,7.5,"16:53:52",1
"17/01/08","17:10",0.6,6.1,97.7,1000.8,283.0,1.6,2.2,287.2,0.00,5.8,7.4,"17:00:16",1
"17/01/08","17:20",0.8,6.0,97.9,1000.5,287.8,1.7,2.7,302.5,0.00,5.7,7.3,"17:14:00",1
"17/01/08","17:30",0.4,6.0,98.0,1000.8,283.7,1.6,1.9,300.3,0.00,5.7,7.5,"17:20:08",1
"17/01/08","17:40",0.4,6.2,97.0,1000.3,282.6,1.5,1.6,273.8,0.00,5.8,7.3,"17:30:56",1
"17/01/08","17:50",0.4,6.0,98.1,1000.5,278.5,1.5,1.9,248.0,0.00,5.8,7.7,"17:48:48",1
"17/01/08","18:00",0.4,6.3,97.2,1000.8,262.7,1.5,1.8,285.0,0.00,5.9,7.5,"17:52:16",1
"17/01/08","18:10",0.4,6.1,98.1,1000.8,289.7,1.6,2.4,310.3,0.00,5.9,7.3,"18:08:48",1
"17/01/08","18:20",0.2,6.2,97.2,1000.8,311.0,2.3,2.9,318.1,0.00,5.8,7.3,"18:12:48",1
"17/01/08","18:30",0.2,5.9,98.1,1000.5,315.9,2.1,2.7,322.9,0.00,5.7,7.3,"18:23:12",1
"17/01/08","18:40",0.2,6.1,97.4,1000.3,303.7,1.5,1.9,318.2,0.00,5.8,7.4,"18:30:08",1
"17/01/08","18:50",0.2,5.9,98.2,1000.8,306.7,2.3,3.3,305.6,0.00,5.7,7.3,"18:48:40",1
"17/01/08","19:00",0.4,6.1,97.4,1000.3,320.3,2.6,3.9,333.3,0.00,5.8,7.5,"18:56:00",1
"17/01/08","19:10",0.4,5.9,98.2,1000.3,321.5,3.0,4.4,336.7,0.00,5.7,7.4,"19:03:36",1
"17/01/08","19:20",0.2,6.2,97.2,999.8,317.9,3.1,4.5,325.4,0.00,5.8,7.2,"19:10:24",1
"17/01/08","19:30",0.0,5.9,97.9,999.8,317.7,2.6,3.7,328.6,0.00,5.6,7.4,"19:29:12",1
"17/01/08","19:40",0.2,6.0,97.9,999.6,316.9,2.7,4.5,325.1,0.00,5.7,7.2,"19:33:52",1
"17/01/08","19:50",0.2,6.0,97.8,1000.0,312.4,2.3,3.9,316.6,0.00,5.7,7.3,"19:43:12",1
"17/01/08","20:00",0.0,6.0,97.6,999.8,306.6,2.0,2.8,325.9,0.00,5.7,7.4,"19:58:00",1
"17/01/08","20:10",0.2,6.0,97.5,999.8,309.7,1.7,2.2,317.7,0.00,5.7,7.4,"20:09:44",1
"17/01/08","20:20",0.0,6.0,97.5,999.8,282.0,1.5,2.2,310.7,0.00,5.7,7.2,"20:10:24",1
"17/01/08","20:30",0.2,6.0,97.5,999.8,291.0,1.2,2.0,322.8,0.00,5.7,7.4,"20:21:36",1
"17/01/08","20:40",0.2,6.0,97.6,999.6,283.8,1.6,1.9,298.2,0.00,5.7,7.3,"20:36:48",1
"17/01/08","20:50",0.2,6.0,97.7,999.6,286.3,1.6,2.7,307.6,0.00,5.7,7.2,"20:46:48",1
"17/01/08","21:00",0.2,6.0,97.7,999.8,302.8,2.1,3.5,321.0,0.00,5.7,7.3,"20:54:00",1
"17/01/08","21:10",0.0,6.0,97.7,999.8,307.8,1.7,2.6,325.7,0.00,5.7,7.2,"21:07:18",1
"17/01/08","21:20",0.4,6.0,97.6,999.6,287.3,1.7,2.5,301.5,0.00,5.7,7.3,"21:10:32",1
"17/01/08","21:30",0.4,6.0,97.6,999.3,297.3,1.8,2.7,309.3,0.00,5.7,7.3,"21:22:08",1
"17/01/08","21:40",0.4,6.0,97.5,999.6,297.9,1.8,2.7,312.6,0.00,5.7,7.0,"21:30:40",1
"17/01/08","21:50",0.2,5.9,97.6,999.6,292.9,1.7,2.4,321.3,0.00,5.6,7.3,"21:44:48",1
"17/01/08","22:00",0.0,5.9,97.6,999.8,293.2,1.5,2.2,317.0,0.00,5.6,7.4,"21:59:12",1
"17/01/08","22:10",0.2,5.9,97.6,999.8,280.2,1.2,2.1,312.2,0.00,5.6,7.1,"22:00:08",1
"17/01/08","22:20",0.0,5.9,97.7,1000.0,307.6,1.7,2.4,318.3,0.00,5.6,7.3,"22:10:40",1
"17/01/08","22:30",0.0,5.8,97.9,999.8,311.5,1.7,2.4,323.3,0.00,5.5,7.2,"22:27:52",1
"17/01/08","22:40",0.0,5.8,98.1,999.8,306.5,1.3,1.8,316.8,0.00,5.6,7.2,"22:31:28",1
"17/01/08","22:50",0.0,6.0,97.1,999.6,307.2,0.8,1.6,280.0,0.00,5.6,7.3,"22:48:00",1
"17/01/08","23:00",0.0,5.8,98.1,1000.0,305.9,1.6,2.2,322.1,0.00,5.6,7.4,"22:56:48",1
"17/01/08","23:10",0.0,6.0,97.3,999.6,299.0,1.3,2.1,318.2,0.00,5.6,7.1,"23:03:04",1
"17/01/08","23:20",0.0,5.7,98.3,999.6,297.8,1.2,1.6,311.9,0.00,5.5,7.1,"23:11:36",1
"17/01/08","23:30",0.0,5.9,97.6,1000.0,312.1,1.3,1.9,315.1,0.00,5.6,7.1,"23:24:40",1
"17/01/08","23:40",0.0,5.7,98.5,999.8,323.5,1.1,2.7,327.7,0.00,5.5,7.2,"23:39:44",1
"17/01/08","23:50",0.0,5.9,97.7,1000.0,306.3,1.6,2.4,330.7,0.00,5.6,7.2,"23:49:52",1
"17/01/08","24:00",0.0,5.7,98.7,999.8,303.9,1.5,2.6,325.5,0.00,5.6,7.3,"23:50:32",1
